Starlink 32788

operational
NORAD ID: 62502 Int'l Des: 2025-003 Owner: SPXS Country: US Constellation: starlink
LEOCIRCULAR

关于 Starlink 32788

正在加载描述...

实时位置

正在加载3D地球...

即将过境

高度历史

Altitude vs Time

uPlot chart will show altitude changes over time

两行轨道根数

1 62502U 25003R 25302.33528985 .00029409 00000-0 10744-2 0 9992
2 62502 43.0006 310.6969 0003041 293.9104 66.1429 15.27564404 46466
Epoch: Oct 29, 2025 • Age: 16 hours

当前状态

高度 484.9 km
速度 7.63 km/s
星下点 32.83°N, 47.65°W
发射日期 Jan 6, 2025
运行时间 0.8 years
类型 internet

技术详情

分类 Payload
质量 730.00 kg
干质量 700.00 kg
总质量 730.00 kg
长度 0.30 m
直径 4.10 m
跨度 29.00 m
形状 Box + pan
制造商 SPXS
平台类型 Starlink V2M
阶段状态 In Orbit
所有者/国家 SPXS/US

大型星座

Loading constellations...